IW4BGV-3 Weather Reports


time (UTC)temp
C
wind
direction
speed
KPH
gust
KPH
rain 1hr
cm
rain 24hr
cm
rain mn
cm
humidity
%
barometer
mb
20260505125029 20 189 19.3 29.0 0.00 0.41 0.41 65 1013.4
20260505124528 20 182 12.9 25.7 0.00 0.41 0.41 64 1013.3
20260505123528 21 205 16.1 29.0 0.00 0.41 0.41 64 1013.5
20260505121528 20 204 8.0 27.4 0.00 0.41 0.41 65 1013.5
20260505121029 21 202 17.7 32.2 0.00 0.41 0.41 64 1013.5
20260505120528 21 202 16.1 32.2 0.00 0.41 0.41 65 1013.5
20260505115528 20 163 19.3 32.2 0.00 0.41 0.41 65 1013.6
20260505115029 20 185 16.1 32.2 0.00 0.41 0.41 66 1013.6
20260505113528 20 198 130.4 130.4 0.00 0.41 0.41 65 1013.6
20260505113030 20 191 130.4 130.4 0.00 0.41 0.41 65 1013.6
20260505112029 20 185 130.4 130.4 0.00 0.41 0.41 65 1013.5
20260505111528 20 201 130.4 130.4 0.00 0.41 0.41 65 1013.6
20260505111030 20 163 130.4 130.4 0.00 0.41 0.41 65 1013.5
20260505102029 20 166 130.4 130.4 0.00 0.41 0.41 68 1013.7
20260505101541 20 173 130.4 130.4 0.00 0.41 0.41 69 1013.7
20260505095532 18 188 130.4 130.4 0.00 0.41 0.41 73 1013.9
20260505095029 18 135 130.4 130.4 0.00 0.41 0.41 73 1014.0
20260505094528 18 129 130.4 130.4 0.00 0.41 0.41 74 1014.0
20260505094030 18 127 130.4 130.4 0.00 0.41 0.41 74 1013.9
20260505093529 17 128 130.4 130.4 0.00 0.41 0.41 74 1014.1
20260505093030 17 133 130.4 130.4 0.00 0.41 0.41 75 1013.9
20260505092532 17 90 130.4 130.4 0.00 0.41 0.41 75 1014.1
20260505092030 17 119 130.4 130.4 0.00 0.41 0.41 75 1014.2
20260505091529 17 108 130.4 130.4 0.00 0.41 0.41 76 1014.1
20260505091030 16 93 130.4 130.4 0.00 0.41 0.41 77 1014.1
20260505090528 16 110 130.4 130.4 0.00 0.41 0.41 77 1014.1
20260505085029 16 135 130.4 130.4 0.00 0.41 0.41 79 1014.1
20260505084528 16 107 130.4 130.4 0.00 0.41 0.41 80 1014.2
20260505084030 16 84 130.4 130.4 0.00 0.41 0.41 81 1014.2
20260505083529 15 82 130.4 130.4 0.00 0.41 0.41 80 1014.2
20260505083029 15 90 130.4 130.4 0.00 0.41 0.41 81 1014.2
20260505082528 15 90 130.4 130.4 0.05 0.41 0.41 81 1014.2
20260505082030 15 94 130.4 130.4 0.05 0.41 0.41 81 1014.3
20260505081542 15 86 107.8 130.4 0.05 0.41 0.41 81 1014.3
20260505080528 14 85 3.2 8.0 0.05 0.41 0.41 81 1014.3
20260505080030 14 85 3.2 4.8 0.05 0.41 0.41 81 1014.3
20260505075530 14 90 3.2 12.9 0.05 0.41 0.41 80 1014.4
20260505075029 14 74 9.7 14.5 0.05 0.41 0.41 80 1014.5
20260505073528 14 62 8.0 11.3 0.15 0.41 0.41 79 1014.3
20260505073029 14 127 8.0 11.3 0.15 0.41 0.41 79 1014.3
20260505072528 14 112 4.8 9.7 0.15 0.36 0.36 79 1014.3
20260505072029 14 112 4.8 4.8 0.15 0.36 0.36 78 1014.2
20260505071528 14 142 0.0 4.8 0.15 0.36 0.36 78 1014.3
20260505071033 14 118 9.7 12.9 0.15 0.36 0.36 78 1014.3
20260505070528 14 66 1.6 4.8 0.15 0.36 0.36 79 1014.4
20260505070031 14 48 4.8 11.3 0.15 0.36 0.36 78 1014.2
20260505065528 14 41 6.4 11.3 0.15 0.36 0.36 78 1014.1
20260505065029 14 54 1.6 4.8 0.15 0.36 0.36 78 1014.2
20260505064529 14 56 3.2 4.8 0.10 0.30 0.30 79 1014.3
20260505064032 14 104 3.2 8.0 0.05 0.25 0.25 79 1014.3
20260505062538 13 325 1.6 1.6 0.00 0.20 0.20 79 1014.0
20260505061528 13 221 1.6 3.2 0.00 0.20 0.20 79 1014.0
20260505061031 13 180 3.2 3.2 0.00 0.20 0.20 79 1014.1
20260505060529 13 201 3.2 3.2 0.00 0.20 0.20 80 1014.2
20260505055031 13 203 1.6 4.8 0.00 0.20 0.20 80 1014.0
20260505054530 13 228 0.0 1.6 0.00 0.20 0.20 80 1013.9
20260505053530 13 141 0.0 1.6 0.00 0.20 0.20 79 1013.9
20260505053031 13 180 0.0 1.6 0.00 0.20 0.20 79 1013.9
20260505052032 13 172 1.6 3.2 0.00 0.20 0.20 79 1013.9
20260505051529 13 199 1.6 4.8 0.00 0.20 0.20 79 1013.9
20260505050533 13 197 4.8 12.9 0.00 0.20 0.20 78 1014.0
20260505041532 13 156 4.8 12.9 0.20 0.20 0.20 75 1014.4
20260505041031 13 170 6.4 11.3 0.20 0.20 0.20 75 1014.4
20260505040530 13 149 4.8 12.9 0.20 0.20 0.20 75 1014.4
20260505040030 13 166 6.4 9.7 0.20 0.20 0.20 74 1014.4
20260505035030 13 158 3.2 11.3 0.15 0.15 0.15 73 1014.5
20260505034530 13 186 8.0 12.9 0.15 0.15 0.15 73 1014.5
20260505034031 13 180 6.4 9.7 0.15 0.15 0.15 73 1014.7
20260505033528 13 158 12.9 16.1 0.10 0.10 0.10 72 1014.6
20260505033030 13 159 9.7 14.5 0.05 0.05 0.05 71 1014.6
20260505032036 14 181 11.3 25.7 0.00 0.00 0.00 70 1014.6
20260505031529 15 307 14.5 16.1 0.00 0.00 0.00 68 1014.6
20260505031033 15 301 16.1 22.5 0.00 0.00 0.00 67 1014.6
20260505030030 15 188 9.7 14.5 0.00 0.00 0.00 65 1014.5
20260505025529 16 164 16.1 22.5 0.00 0.00 0.00 64 1014.5
20260505025030 16 316 20.9 20.9 0.00 0.00 0.00 63 1014.5
20260505024529 16 308 9.7 11.3 0.00 0.00 0.00 62 1014.5
20260505024031 16 316 9.7 11.3 0.00 0.00 0.00 61 1014.5
20260505023529 16 307 11.3 11.3 0.00 0.00 0.00 61 1014.5
20260505023031 16 182 6.4 12.9 0.00 0.00 0.00 61 1014.5
20260505022529 16 163 11.3 11.3 0.00 0.00 0.00 61 1014.5
20260505022030 16 153 6.4 11.3 0.00 0.00 0.00 61 1014.6
20260505021529 16 184 3.2 11.3 0.00 0.00 0.00 61 1014.5
20260505021031 16 247 1.6 4.8 0.00 0.00 0.00 61 1014.6
20260505020530 16 281 4.8 8.0 0.00 0.00 0.00 61 1014.6
20260505015529 16 316 1.6 8.0 0.00 0.00 0.00 60 1014.7
20260505015031 16 316 3.2 3.2 0.00 0.00 0.00 60 1014.7
20260505014529 16 307 1.6 3.2 0.00 0.00 0.00 60 1014.8
20260505014031 16 308 6.4 9.7 0.00 0.00 0.00 59 1014.7
20260505013043 16 240 8.0 11.3 0.00 0.00 0.00 59 1014.7
20260505012030 16 197 4.8 8.0 0.00 0.00 0.00 59 1014.9
20260505010529 17 180 3.2 4.8 0.00 0.00 0.00 57 1015.0
20260505010030 17 180 3.2 4.8 0.00 0.00 0.00 57 1015.1
20260505005534 17 182 4.8 9.7 0.00 0.00 0.00 57 1015.0
20260505004529 17 197 8.0 12.9 0.00 0.00 0.00 56 1015.2
20260505004031 17 174 6.4 9.7 0.00 0.00 0.00 56 1015.2
20260505003530 17 178 4.8 9.7 0.00 0.00 0.00 56 1015.4
20260505003031 17 180 11.3 11.3 0.00 0.00 0.00 56 1015.4
20260505001030 17 181 4.8 4.8 0.00 0.00 0.00 56 1015.5
20260505000030 17 160 6.4 9.7 0.00 0.00 0.00 56 1015.7
20260504235031 17 160 4.8 9.7 0.00 0.00 0.00 56 1016.0
20260504234530 17 160 4.8 4.8 0.00 0.00 0.00 56 1016.0
20260504234032 17 158 1.6 4.8 0.00 0.00 0.00 56 1016.0
20260504233529 17 174 3.2 3.2 0.00 0.00 0.00 56 1016.1
20260504233031 17 183 1.6 1.6 0.00 0.00 0.00 56 1016.2
20260504232031 17 180 3.2 4.8 0.00 0.00 0.00 55 1016.2
20260504231547 17 180 4.8 8.0 0.00 0.00 0.00 56 1016.2
20260504231031 17 202 6.4 8.0 0.00 0.00 0.00 56 1016.2
20260504230530 17 176 8.0 11.3 0.00 0.00 0.00 56 1016.2
20260504230030 17 172 6.4 14.5 0.00 0.00 0.00 56 1016.4
20260504225529 17 158 6.4 14.5 0.00 0.00 0.00 56 1016.4
20260504225030 17 164 4.8 9.7 0.00 0.00 0.00 56 1016.3
20260504224031 17 165 8.0 12.9 0.00 0.00 0.00 56 1016.4
20260504223530 17 191 3.2 4.8 0.00 0.00 0.00 56 1016.5
20260504223040 17 183 3.2 16.1 0.00 0.00 0.00 56 1016.5
20260504222530 17 194 4.8 16.1 0.00 0.00 0.00 56 1016.5
20260504221529 17 174 4.8 11.3 0.00 0.00 0.00 56 1016.5
20260504221031 17 180 11.3 14.5 0.00 0.00 0.00 55 1016.5
20260504220530 17 171 4.8 9.7 0.00 0.00 0.00 55 1016.4
20260504220031 17 163 4.8 12.9 0.00 0.00 0.00 55 1016.6
20260504215529 17 166 6.4 11.3 0.00 0.00 0.00 55 1016.6
20260504215031 17 187 6.4 11.3 0.00 0.00 0.00 55 1016.6
20260504214532 18 210 4.8 9.7 0.00 0.00 0.00 55 1016.6
20260504214031 18 213 3.2 11.3 0.00 0.00 0.00 54 1016.6
20260504213031 18 184 12.9 19.3 0.00 0.00 0.00 55 1016.6
20260504212529 18 188 11.3 19.3 0.00 0.00 0.00 55 1016.5
20260504212030 18 173 8.0 22.5 0.00 0.00 0.00 55 1016.5
20260504211529 18 207 12.9 25.7 0.00 0.00 0.00 55 1016.6
20260504211030 18 171 9.7 22.5 0.00 0.00 0.00 56 1016.6
20260504210530 18 183 11.3 16.1 0.00 0.00 0.00 56 1016.7
20260504210032 18 226 11.3 19.3 0.00 0.00 0.00 56 1016.7
20260504205530 18 190 9.7 12.9 0.00 0.00 0.00 56 1016.8
20260504204529 18 215 6.4 9.7 0.00 0.00 0.00 56 1016.6
20260504203528 18 178 1.6 3.2 0.00 0.00 0.00 55 1016.5
20260504203030 18 231 1.6 3.2 0.00 0.00 0.00 55 1016.6
20260504202529 18 259 4.8 4.8 0.00 0.00 0.00 55 1016.6
20260504202031 18 177 3.2 4.8 0.00 0.00 0.00 54 1016.6
20260504201530 18 225 1.6 4.8 0.00 0.00 0.00 54 1016.6
20260504201031 18 198 3.2 4.8 0.00 0.00 0.00 53 1016.4
20260504195529 19 180 6.4 9.7 0.00 0.00 0.00 52 1016.5
20260504194529 19 189 6.4 9.7 0.00 0.00 0.00 51 1016.2
20260504194031 20 180 1.6 4.8 0.00 0.00 0.00 50 1016.2
20260504193031 20 158 1.6 8.0 0.00 0.00 0.00 50 1016.2
20260504192530 20 197 6.4 11.3 0.00 0.00 0.00 49 1016.1
20260504192030 20 174 8.0 12.9 0.00 0.00 0.00 49 1016.1
20260504191039 20 190 4.8 8.0 0.00 0.00 0.00 48 1016.0
20260504190030 20 158 3.2 11.3 0.00 0.00 0.00 48 1016.0
20260504185031 21 158 4.8 4.8 0.00 0.00 0.00 48 1016.0
20260504183030 21 180 6.4 11.3 0.00 0.00 0.00 49 1015.7
20260504182538 21 196 3.2 8.0 0.00 0.00 0.00 50 1015.6
20260504181031 21 187 4.8 8.0 0.00 0.00 0.00 52 1015.7
20260504180529 21 170 3.2 8.0 0.00 0.00 0.00 53 1015.7
20260504180030 21 184 3.2 8.0 0.00 0.00 0.00 54 1015.6
20260504175528 21 161 4.8 11.3 0.00 0.00 0.00 55 1015.7
20260504175030 21 179 1.6 3.2 0.00 0.00 0.00 56 1015.5
20260504174528 21 158 3.2 4.8 0.00 0.00 0.00 56 1015.5
20260504174039 21 180 1.6 4.8 0.00 0.00 0.00 56 1015.7
20260504173528 21 178 1.6 3.2 0.00 0.00 0.00 56 1015.7
20260504173030 21 167 0.0 1.6 0.00 0.00 0.00 56 1015.6
20260504172030 21 118 0.0 0.0 0.00 0.00 0.00 55 1015.6
20260504171528 21 130 1.6 4.8 0.00 0.00 0.00 55 1015.6
20260504171030 21 128 3.2 4.8 0.00 0.00 0.00 55 1015.5
20260504170528 21 94 0.0 3.2 0.00 0.00 0.00 55 1015.7
20260504151030 21 71 9.7 20.9 0.00 0.00 0.00 54 1016.0
20260504141030 22 65 12.9 19.3 0.00 0.00 0.00 50 1016.2
20260504140529 22 68 16.1 27.4 0.00 0.00 0.00 49 1016.3